Location: The Jewett Observatory
(46.7288°N, 117.1525°W)
Time: 02:03:25
(UTC-08:00)

Amateur Radio Satellites - All Passes

Search period start: 21 December 2014 01:33
Search period end: 22 December 2014 01:33
Location: The Jewett Observatory, 46.7288°N, 117.1525°W

Satellite Date Start Highest point End Downlink Frequencies (MHz)
Time Altitude Azimuth
O/OREOS (USA 219) 21 Dec 01:44:39 01:48:21 25° 307° (NW) 01:52:04 437.305
AUBIESAT-1 21 Dec 01:49:20 01:53:13 24° 262° (W) 01:57:09 437.475
HORYU 2 21 Dec 01:52:16 01:53:27 11° 87° (E) 01:54:38 437.375
Oscar 19 21 Dec 02:00:53 02:06:01 59° 289° (WNW) 02:11:06 437.125/150
STARS 21 Dec 02:02:05 02:06:25 63° 258° (WSW) 02:10:48 437.465
KKS-1 21 Dec 02:07:03 02:11:12 39° 262° (W) 02:15:22 437.445
Gurwin Techsat 1B 21 Dec 02:15:08 02:20:18 49° 99° (E) 02:25:25 435.225
M-CUBED/EXP-1 PRIME 21 Dec 02:17:25 02:19:35 13° 268° (W) 02:21:46 437.505
ITAMSAT 1 21 Dec 02:17:28 02:22:40 79° 104° (ESE) 02:27:51 435.822/435.867
SO-50 21 Dec 02:20:34 02:22:14 12° 17° (NNE) 02:23:54 436.795
AO-7 21 Dec 02:45:29 02:51:39 22° 90° (E) 02:57:45 29.400- 29.500
AIST 1 21 Dec 02:48:39 02:52:51 50° 77° (ENE) 02:56:59
YUBILEINY 21 Dec 02:54:05 02:56:19 11° 315° (NW) 02:58:33 435.215
MOZHAYETS 4 21 Dec 03:19:20 03:23:44 44° 70° (ENE) 03:28:10
VERMONT LUNAR 21 Dec 03:19:23 03:22:05 21° 164° (SSE) 03:24:48 437.305
HORYU 2 21 Dec 03:26:12 03:30:45 87° 285° (WNW) 03:35:16 437.375
PHONESAT 2.4 21 Dec 03:35:41 03:38:24 20° 162° (SSE) 03:41:07 2401.200-2431.200
Oscar 19 21 Dec 03:43:57 03:44:17 10° 309° (NW) 03:44:37 437.125/150
PRISM 21 Dec 03:54:01 03:56:48 17° 62° (ENE) 03:59:36 437.425
Gurwin Techsat 1B 21 Dec 03:55:38 03:59:59 26° 298° (WNW) 04:04:20 435.225
ITAMSAT 1 21 Dec 03:58:17 04:01:33 17° 303° (WNW) 04:04:48 435.822/435.867
SO-50 21 Dec 03:59:56 04:04:18 32° 40° (NE) 04:08:41 436.795
AIST 1 21 Dec 04:27:27 04:30:05 16° 275° (W) 04:32:41
AO-7 21 Dec 04:37:02 04:45:28 88° 290° (WNW) 04:53:51 29.400- 29.500
CUBESAT XI-V 21 Dec 04:44:31 04:48:26 27° 65° (ENE) 04:52:21 437.345
GONETS M04 21 Dec 04:46:29 04:54:53 52° 89° (E) 05:03:19
VERMONT LUNAR 21 Dec 04:56:46 04:59:53 30° 180° (S) 05:03:00 437.305
MOZHAYETS 4 21 Dec 04:57:28 05:01:09 23° 268° (W) 05:04:51
JAS-2 21 Dec 05:01:50 05:07:36 74° 103° (ESE) 05:12:50 435.910
HORYU 2 21 Dec 05:04:57 05:06:42 12° 303° (WNW) 05:08:28 437.375
STRAND 1 21 Dec 05:07:33 05:12:21 42° 68° (ENE) 05:17:09 437.568
PHONESAT 2.4 21 Dec 05:13:19 05:16:32 30° 179° (S) 05:19:46 2401.200-2431.200
Cubesat XI-IV 21 Dec 05:17:29 05:21:46 24° 93° (E) 05:26:01 437.490
PRISM 21 Dec 05:27:48 05:31:57 54° 259° (W) 05:36:07 437.425
SO-50 21 Dec 05:40:20 05:45:04 49° 240° (WSW) 05:49:47 436.795
CUTE-I 21 Dec 05:50:04 05:55:09 45° 99° (E) 06:00:13 437.470
CUBESAT XI-V 21 Dec 06:21:24 06:25:44 37° 263° (W) 06:30:05 437.345
AO-7 21 Dec 06:30:49 06:37:15 26° 312° (NW) 06:43:41 29.400- 29.500
VERMONT LUNAR 21 Dec 06:35:01 06:37:40 20° 197° (SSW) 06:40:18 437.305
GONETS M04 21 Dec 06:43:42 06:51:55 41° 291° (WNW) 07:00:11
STRAND 1 21 Dec 06:47:21 06:51:41 28° 266° (W) 06:56:02 437.568
JAS-2 21 Dec 06:48:06 06:51:59 19° 305° (NW) 06:55:39 435.910
PHONESAT 2.4 21 Dec 06:51:51 06:54:42 22° 196° (SSW) 06:57:34 2401.200-2431.200
Cubesat XI-IV 21 Dec 06:56:59 07:02:08 51° 291° (WNW) 07:07:16 437.490
BRITE-PL 21 Dec 07:16:57 07:18:00 11° 88° (E) 07:19:04 437.365/2234.400
HO-68 21 Dec 07:25:29 07:30:16 19° 88° (E) 07:35:01 435.675
CUTE-I 21 Dec 07:30:31 07:35:02 29° 297° (WNW) 07:39:32 437.470
GOMX 1 21 Dec 07:38:58 07:41:18 13° 89° (E) 07:43:42 467.674
AAUSAT CUBESAT 2 21 Dec 07:46:58 07:47:10 10° 87° (E) 07:47:22 437.432
CANX-2 21 Dec 08:00:16 08:03:50 25° 94° (E) 08:07:22 2200.000
DOVE 4 21 Dec 08:00:32 08:03:34 17° 90° (E) 08:06:41 437.250
CUSAT 1 21 Dec 08:17:17 08:20:08 19° 81° (E) 08:23:33 437.405
ANTELSAT 21 Dec 08:17:50 08:20:42 17° 60° (ENE) 08:23:36 437.575/2403.000
QB50P1 21 Dec 08:18:25 08:19:23 11° 57° (ENE) 08:20:21 145.935-145.965
COMPASS 1 21 Dec 08:19:56 08:23:33 26° 94° (E) 08:27:08 437.405
CINEMA 3 21 Dec 08:20:43 08:23:36 16° 90° (E) 08:26:31 145.822/145.860
SEEDS 21 Dec 08:26:16 08:30:15 36° 97° (E) 08:34:11 437.485
CUTE 1.7 + AOD 2 21 Dec 08:30:35 08:34:45 46° 99° (E) 08:38:53 437.475
O/OREOS (USA 219) 21 Dec 08:32:50 08:36:06 19° 49° (NE) 08:39:22 437.305
DELFI C3 21 Dec 08:33:05 08:35:10 14° 89° (E) 08:37:15 145.870
UWE-3 21 Dec 08:36:56 08:38:30 12° 87° (E) 08:40:04 435.000/436.395/437.385
POPSAT HIP 1 21 Dec 08:44:53 08:47:53 19° 63° (ENE) 08:50:53 437.405
DX 1 21 Dec 08:49:10 08:52:11 18° 92° (E) 08:55:12 434.975-435.025
TIGRISAT 21 Dec 08:51:33 08:55:28 33° 67° (ENE) 08:59:29 435.000
BRITE-PL 21 Dec 08:52:25 08:57:06 85° 103° (ESE) 09:02:10 437.365/2234.400
MaSat-1 21 Dec 08:56:27 08:58:35 36° 302° (WNW) 09:00:40 437.345
YUBILEINY 21 Dec 08:58:13 09:05:11 26° 61° (ENE) 09:12:05 435.215
BUGSAT 1 21 Dec 09:07:17 09:10:37 25° 66° (ENE) 09:13:57 437.445
Oscar 11 21 Dec 09:09:33 09:13:41 39° 98° (E) 09:17:46 145.826/435.025
DANDE 21 Dec 09:11:29 09:15:04 52° 94° (E) 09:19:55 436.750
DUCHIFAT 1 21 Dec 09:11:31 09:15:18 34° 68° (ENE) 09:19:07 145.980
HO-68 21 Dec 09:11:42 09:18:55 89° 289° (WNW) 09:26:04 435.675
GOMX 1 21 Dec 09:15:10 09:19:54 81° 285° (WNW) 09:24:58 467.674
UKube-1 21 Dec 09:18:42 09:22:41 34° 97° (E) 09:26:38 .
AAUSAT CUBESAT 2 21 Dec 09:19:10 09:23:27 84° 285° (WNW) 09:27:40 437.432
RS-15 21 Dec 09:20:01 09:24:55 14° 95° (E) 09:29:48 29.354- 29.394
UNISAT 6 21 Dec 09:20:36 09:24:57 64° 73° (ENE) 09:29:26 437.425
QB50P2 21 Dec 09:25:21 09:29:24 47° 71° (ENE) 09:33:29 145.880/145.840
POLYITAN 1 21 Dec 09:34:23 09:38:31 59° 73° (ENE) 09:42:41 437.675
CUBEBUG 2 21 Dec 09:34:33 09:39:04 49° 99° (E) 09:43:39 437.445
NANOSAT C BR1 21 Dec 09:35:53 09:40:01 61° 73° (ENE) 09:44:11 145.865
CANX-2 21 Dec 09:35:53 09:39:51 35° 291° (WNW) 09:43:47 2200.000
DOVE 4 21 Dec 09:37:00 09:41:42 67° 286° (WNW) 09:46:41 437.250
ZACube-1 21 Dec 09:41:49 09:46:08 42° 98° (E) 09:50:30 437.345
VELOX 1 21 Dec 09:46:52 09:50:33 25° 95° (E) 09:54:13 145.980
QB50P1 21 Dec 09:50:22 09:54:34 86° 76° (ENE) 09:58:49 145.935-145.965
ANTELSAT 21 Dec 09:52:40 09:57:00 61° 259° (W) 10:01:30 437.575/2403.000
ESTCUBE 1 21 Dec 09:53:31 09:55:37 13° 88° (E) 09:57:43 437.505/2401.250
COMPASS 1 21 Dec 09:55:29 09:59:18 32° 292° (WNW) 10:03:05 437.405
CINEMA 3 21 Dec 09:56:31 10:01:13 69° 286° (WNW) 10:06:05 145.822/145.860
CUSAT 1 21 Dec 09:58:47 10:02:33 43° 290° (WNW) 10:07:37 437.405
SEEDS 21 Dec 10:02:24 10:05:55 25° 294° (WNW) 10:09:24 437.485
DELFI C3 21 Dec 10:06:45 10:10:51 60° 287° (WNW) 10:14:53 145.870
CUTE 1.7 + AOD 2 21 Dec 10:07:12 10:10:23 20° 296° (WNW) 10:13:34 437.475
50 SAT 21 Dec 10:07:50 10:11:42 36° 97° (E) 10:15:32 437.505
FUNcube-1 21 Dec 10:08:12 10:12:44 77° 103° (ESE) 10:17:19 145.935
UWE-3 21 Dec 10:11:01 10:15:37 86° 284° (WNW) 10:20:18 435.000/436.395/437.385
O/OREOS (USA 219) 21 Dec 10:11:28 10:15:55 61° 249° (WSW) 10:20:23 437.305
POPSAT HIP 1 21 Dec 10:19:25 10:23:28 46° 261° (W) 10:27:34 437.405
DX 1 21 Dec 10:24:30 10:28:42 49° 290° (WNW) 10:32:53 434.975-435.025
TIGRISAT 21 Dec 10:28:29 10:32:14 28° 266° (W) 10:36:06 435.000
AISAT 21 Dec 10:30:03 10:34:30 70° 103° (ESE) 10:38:55 437.250
BRITE-PL 21 Dec 10:32:42 10:35:06 14° 300° (WNW) 10:37:34 437.365/2234.400
CUBEBUG 1 21 Dec 10:33:18 10:37:08 30° 96° (E) 10:40:56 437.445
HUMSAT D 21 Dec 10:36:11 10:40:33 90° 103° (ESE) 10:44:54 437.325/437.525
BUGSAT 1 21 Dec 10:42:20 10:46:01 32° 263° (W) 10:49:41 437.445
Oscar 11 21 Dec 10:46:10 10:49:39 24° 295° (WNW) 10:53:07 145.826/435.025
DUCHIFAT 1 21 Dec 10:47:47 10:51:14 25° 266° (W) 10:54:43 145.980
YUBILEINY 21 Dec 10:54:21 11:03:04 82° 264° (W) 11:11:46 435.215
UKube-1 21 Dec 10:55:06 10:58:43 26° 295° (WNW) 11:02:19 .
GOMX 1 21 Dec 10:55:34 10:57:23 12° 302° (WNW) 10:59:13 467.674
DANDE 21 Dec 10:56:37 10:59:19 17° 304° (NW) 11:02:31 436.750
AAUSAT CUBESAT 2 21 Dec 10:57:32 10:58:23 11° 303° (WNW) 10:59:15 437.432
UNISAT 6 21 Dec 10:59:48 11:02:14 14° 271° (W) 11:04:42 437.425
HO-68 21 Dec 11:00:33 11:05:44 22° 308° (NW) 11:10:55 435.675
QB50P2 21 Dec 11:02:43 11:05:35 18° 268° (W) 11:08:29 145.880/145.840
CUBEBUG 2 21 Dec 11:11:56 11:15:28 22° 296° (WNW) 11:19:04 437.445
POLYITAN 1 21 Dec 11:12:34 11:14:52 14° 270° (W) 11:17:11 437.675
NANOSAT C BR1 21 Dec 11:14:05 11:16:18 14° 270° (W) 11:18:32 145.865
DOVE 4 21 Dec 11:18:26 11:18:40 10° 304° (NW) 11:18:54 437.250
ZACube-1 21 Dec 11:18:40 11:22:17 24° 295° (WNW) 11:25:57 437.345
VELOX 1 21 Dec 11:23:10 11:27:13 36° 292° (WNW) 11:31:15 145.980
RS-15 21 Dec 11:24:06 11:34:47 63° 117° (ESE) 11:45:31 29.354- 29.394
ESTCUBE 1 21 Dec 11:28:31 11:33:02 73° 286° (WNW) 11:37:29 437.505/2401.250
TISAT 1 21 Dec 11:31:35 11:35:23 31° 96° (E) 11:39:10 437.305
CINEMA 3 21 Dec 11:36:55 11:37:37 10° 304° (NW) 11:38:18 145.822/145.860
SPROUT 21 Dec 11:37:42 11:41:39 35° 97° (E) 11:45:36 437.525
Oscar 19 21 Dec 11:41:49 11:46:34 39° 67° (ENE) 11:51:21 437.125/150
50 SAT 21 Dec 11:43:26 11:46:45 23° 295° (WNW) 11:50:03 437.505
FUNcube-1 21 Dec 11:46:04 11:48:31 15° 300° (WNW) 11:51:00 145.935
UWE-3 21 Dec 11:49:39 11:51:28 12° 302° (WNW) 11:53:19 435.000/436.395/437.385
ITAMSAT 1 21 Dec 12:00:24 12:04:31 25° 61° (ENE) 12:08:38 435.822/435.867
AO-7 21 Dec 12:01:15 12:04:17 12° 34° (NNE) 12:07:20 29.400- 29.500
Gurwin Techsat 1B 21 Dec 12:01:48 12:05:07 17° 57° (ENE) 12:08:27 435.225
AISAT 21 Dec 12:08:04 12:10:36 15° 301° (WNW) 12:13:08 437.250
CUBEBUG 1 21 Dec 12:09:42 12:13:28 30° 293° (WNW) 12:17:14 437.445
HUMSAT D 21 Dec 12:14:08 12:15:41 12° 302° (WNW) 12:17:13 437.325/437.525
BEESAT 3 21 Dec 12:34:00 12:37:47 36° 118° (ESE) 12:41:37 437.485
SWISSCUBE 21 Dec 12:42:42 12:46:55 31° 96° (E) 12:51:06 437.505
ITUPSAT 1 21 Dec 12:43:37 12:47:45 29° 95° (E) 12:51:51 437.325
AIST 2 21 Dec 12:46:51 12:50:10 22° 114° (ESE) 12:53:31 435.215
HORYU 2 21 Dec 12:52:59 12:55:44 16° 60° (ENE) 12:58:30 437.375
YUBILEINY 21 Dec 12:53:07 12:58:27 18° 285° (WNW) 13:03:47 435.215
BEESAT 21 Dec 13:07:15 13:11:53 48° 100° (E) 13:16:29 436.000
TISAT 1 21 Dec 13:07:33 13:11:08 27° 294° (WNW) 13:14:42 437.305
ISS 21 Dec 13:10:17 13:13:19 34° 143° (SE) 13:16:21 145.825
SPROUT 21 Dec 13:14:04 13:17:36 26° 294° (WNW) 13:21:09 437.525
BEESAT 2 21 Dec 13:14:20 13:18:28 81° 125° (SE) 13:22:40 435.950
Oscar 19 21 Dec 13:21:28 13:25:59 31° 265° (W) 13:30:33 437.125/150
PCSat 21 Dec 13:23:41 13:29:01 63° 118° (ESE) 13:34:24 145.827
AUBIESAT-1 21 Dec 13:29:11 13:32:40 23° 98° (E) 13:35:55 437.475
JAS-2 21 Dec 13:36:15 13:38:25 12° 48° (NE) 13:40:31 435.910
RS-15 21 Dec 13:37:05 13:47:35 50° 324° (NW) 13:58:18 29.354- 29.394
ITAMSAT 1 21 Dec 13:38:39 13:43:41 52° 260° (W) 13:48:46 435.822/435.867
Gurwin Techsat 1B 21 Dec 13:39:07 13:44:26 82° 256° (WSW) 13:49:47 435.225
AO-7 21 Dec 13:47:15 13:54:51 42° 57° (ENE) 14:02:29 29.400- 29.500
STARS 21 Dec 13:50:01 13:53:18 20° 92° (E) 13:56:34 437.465
M-CUBED/EXP-1 PRIME 21 Dec 13:55:04 13:59:22 48° 104° (ESE) 14:03:15 437.505
KKS-1 21 Dec 13:55:20 13:59:22 32° 96° (E) 14:03:23 437.445
BEESAT 3 21 Dec 14:12:19 14:16:00 31° 317° (NW) 14:19:45 437.485
SWISSCUBE 21 Dec 14:20:30 14:24:48 34° 294° (WNW) 14:29:04 437.505
ITUPSAT 1 21 Dec 14:21:20 14:25:42 37° 293° (WNW) 14:30:03 437.325
AIST 2 21 Dec 14:24:23 14:28:31 48° 312° (NW) 14:32:43 435.215
HORYU 2 21 Dec 14:27:28 14:31:54 66° 258° (WSW) 14:36:24 437.375
BEESAT 21 Dec 14:45:43 14:49:26 23° 298° (WNW) 14:53:08 436.000
ISS 21 Dec 14:46:35 14:49:50 52° 342° (NNW) 14:53:04 145.825
GONETS M04 21 Dec 14:53:09 15:00:39 30° 63° (ENE) 15:08:03
BEESAT 2 21 Dec 14:54:17 14:57:15 19° 325° (NW) 15:00:15 435.950
AUBIESAT-1 21 Dec 15:03:42 15:07:47 38° 298° (WNW) 15:11:32 437.475
PCSat 21 Dec 15:08:14 15:12:51 28° 319° (NW) 15:17:30 145.827
JAS-2 21 Dec 15:14:58 15:22:07 50° 68° (ENE) 15:28:37 435.910
AIST 1 21 Dec 15:21:43 15:25:21 26° 89° (E) 15:28:59
Gurwin Techsat 1B 21 Dec 15:23:23 15:25:13 12° 274° (W) 15:27:05 435.225
STARS 21 Dec 15:25:45 15:30:01 46° 290° (WNW) 15:34:16 437.465
M-CUBED/EXP-1 PRIME 21 Dec 15:30:40 15:34:01 21° 304° (NW) 15:37:09 437.505
KKS-1 21 Dec 15:32:05 15:35:57 29° 294° (WNW) 15:39:49 437.445
CUTE-I 21 Dec 15:37:38 15:40:50 16° 56° (NE) 15:44:02 437.470
AO-7 21 Dec 15:39:19 15:47:26 55° 258° (WSW) 15:55:38 29.400- 29.500
RS-15 21 Dec 15:53:55 16:03:17 31° 357° (N) 16:12:54 29.354- 29.394
AIST 2 21 Dec 16:06:18 16:08:10 13° 334° (NNW) 16:10:03 435.215
ISS 21 Dec 16:23:47 16:26:50 33° 2° (N) 16:29:51 145.825
Cubesat XI-IV 21 Dec 16:42:08 16:47:17 52° 69° (ENE) 16:52:27 437.490
MOZHAYETS 4 21 Dec 16:48:37 16:53:16 72° 102° (ESE) 16:57:52
GONETS M04 21 Dec 16:49:34 16:58:17 71° 266° (W) 17:06:54
MaSat-1 21 Dec 16:50:44 16:52:47 25° 56° (NE) 16:54:55 437.345
PCSat 21 Dec 16:57:45 16:58:14 10° 344° (NNW) 16:58:44 145.827
AIST 1 21 Dec 16:58:59 17:02:54 31° 287° (WNW) 17:06:49
JAS-2 21 Dec 17:00:19 17:07:15 38° 264° (W) 17:13:38 435.910
PRISM 21 Dec 17:09:06 17:11:51 17° 92° (E) 17:14:36 437.425
CUTE-I 21 Dec 17:14:53 17:20:13 86° 255° (WSW) 17:25:34 437.470
STRAND 1 21 Dec 17:17:51 17:19:00 11° 86° (E) 17:20:09 437.568
HO-68 21 Dec 17:57:49 18:03:02 22° 52° (NE) 18:08:15 435.675
ISS 21 Dec 18:00:31 18:03:47 62° 21° (NNE) 18:07:02 145.825
DANDE 21 Dec 18:05:29 18:10:27 18° 58° (ENE) 18:15:50 436.750
RS-15 21 Dec 18:08:58 18:19:24 43° 30° (NNE) 18:30:13 29.354- 29.394
CUBESAT XI-V 21 Dec 18:15:03 18:19:28 43° 98° (E) 18:23:50 437.345
Cubesat XI-IV 21 Dec 18:23:26 18:27:41 24° 267° (W) 18:31:56 437.490
MaSat-1 21 Dec 18:25:16 18:25:47 10° 251° (WSW) 18:26:18 437.345
MOZHAYETS 4 21 Dec 18:27:12 18:29:57 16° 300° (WNW) 18:32:41
BRITE-PL 21 Dec 18:30:50 18:33:08 15° 61° (ENE) 18:35:28 437.365/2234.400
AAUSAT CUBESAT 2 21 Dec 18:40:42 18:42:14 12° 58° (ENE) 18:43:45 437.432
PRISM 21 Dec 18:43:39 18:47:40 48° 289° (WNW) 18:51:38 437.425
GONETS M04 21 Dec 18:49:00 18:53:23 15° 288° (WNW) 18:57:45
CUSAT 1 21 Dec 18:49:58 18:56:55 37° 68° (ENE) 19:04:36 437.405
GOMX 1 21 Dec 18:50:45 18:53:26 17° 62° (ENE) 18:56:09 467.674
STRAND 1 21 Dec 18:53:53 18:59:01 81° 104° (ESE) 19:04:06 437.568
CANX-2 21 Dec 18:56:21 18:59:55 26° 66° (ENE) 19:03:31 2200.000
CUTE-I 21 Dec 18:58:52 19:01:04 12° 273° (W) 19:03:15 437.470
DOVE 4 21 Dec 19:09:57 19:12:57 20° 63° (ENE) 19:16:01 437.250
BEESAT 3 21 Dec 19:13:50 19:15:57 13° 29° (NNE) 19:18:04 437.485
COMPASS 1 21 Dec 19:14:32 19:18:07 27° 66° (ENE) 19:21:43 437.405
SEEDS 21 Dec 19:21:26 19:25:20 37° 69° (ENE) 19:29:18 437.485
DELFI C3 21 Dec 19:24:58 19:27:11 14° 61° (ENE) 19:29:24 145.870
CINEMA 3 21 Dec 19:26:11 19:29:02 18° 62° (ENE) 19:31:58 145.822/145.860
CUTE 1.7 + AOD 2 21 Dec 19:26:21 19:30:27 47° 71° (ENE) 19:34:35 437.475
AIST 2 21 Dec 19:28:18 19:29:35 11° 23° (NNE) 19:30:52 435.215
FUNcube-1 21 Dec 19:34:51 19:35:44 11° 57° (ENE) 19:36:36 145.935
ISS 21 Dec 19:37:23 19:40:10 26° 220° (SW) 19:42:57 145.825
UWE-3 21 Dec 19:37:33 19:39:36 13° 59° (ENE) 19:41:42 435.000/436.395/437.385
HO-68 21 Dec 19:42:40 19:49:52 89° 72° (ENE) 19:57:06 435.675
DANDE 21 Dec 19:47:29 19:55:03 70° 77° (ENE) 20:03:42 436.750
DX 1 21 Dec 19:47:39 19:51:08 24° 64° (ENE) 19:54:37 434.975-435.025
CUBESAT XI-V 21 Dec 19:53:02 19:56:40 24° 296° (WNW) 20:00:17 437.345
BEESAT 2 21 Dec 19:54:17 19:57:33 21° 37° (NE) 20:00:47 435.950
AISAT 21 Dec 19:57:45 19:59:27 12° 57° (ENE) 20:01:09 437.250
SO-50 21 Dec 19:58:07 20:01:58 28° 115° (ESE) 20:05:56 436.795
HUMSAT D 21 Dec 19:58:59 20:00:14 11° 58° (ENE) 20:01:28 437.325/437.525
Oscar 11 21 Dec 20:07:06 20:11:13 44° 70° (ENE) 20:15:22 145.826/435.025
BRITE-PL 21 Dec 20:07:08 20:11:14 59° 259° (W) 20:15:22 437.365/2234.400
AAUSAT CUBESAT 2 21 Dec 20:13:01 20:17:14 86° 257° (WSW) 20:21:31 437.432
UKube-1 21 Dec 20:16:31 20:20:37 43° 69° (ENE) 20:24:45 .
RS-15 21 Dec 20:21:43 20:32:58 81° 237° (WSW) 20:44:43 29.354- 29.394
PCSat 21 Dec 20:25:58 20:30:08 22° 37° (NE) 20:34:17 145.827
GOMX 1 21 Dec 20:27:10 20:31:12 51° 260° (W) 20:35:19 467.674
CANX-2 21 Dec 20:31:52 20:35:45 33° 264° (W) 20:39:40 2200.000
CUSAT 1 21 Dec 20:32:47 20:40:20 61° 265° (W) 20:48:40 437.405
STRAND 1 21 Dec 20:34:27 20:37:34 17° 303° (WNW) 20:40:41 437.568
CUBEBUG 2 21 Dec 20:36:04 20:40:10 55° 72° (ENE) 20:44:25 437.445
ZACube-1 21 Dec 20:41:00 20:45:01 45° 71° (ENE) 20:49:08 437.345
DOVE 4 21 Dec 20:46:30 20:50:27 43° 262° (W) 20:54:31 437.250
VELOX 1 21 Dec 20:47:33 20:51:30 33° 67° (ENE) 20:55:28 145.980
COMPASS 1 21 Dec 20:49:58 20:53:45 31° 264° (W) 20:57:35 437.405
BEESAT 3 21 Dec 20:50:52 20:55:01 59° 50° (NE) 20:59:06 437.485
ESTCUBE 1 21 Dec 20:55:53 20:59:02 19° 62° (ENE) 21:02:12 437.505/2401.250
DELFI C3 21 Dec 20:57:52 21:01:57 65° 259° (WSW) 21:06:05 145.870
SEEDS 21 Dec 20:57:52 21:01:17 23° 267° (W) 21:04:43 437.485
50 SAT 21 Dec 20:59:04 21:02:42 33° 69° (ENE) 21:06:23 437.505
CINEMA 3 21 Dec 21:01:50 21:05:53 50° 261° (W) 21:10:05 145.822/145.860
CUTE 1.7 + AOD 2 21 Dec 21:03:39 21:06:38 18° 269° (W) 21:09:39 437.475
AIST 2 21 Dec 21:05:19 21:09:24 39° 45° (NE) 21:13:25 435.215
FUNcube-1 21 Dec 21:07:07 21:11:19 85° 76° (ENE) 21:15:39 145.935
UWE-3 21 Dec 21:11:22 21:15:33 74° 258° (WSW) 21:19:53 435.000/436.395/437.385
UNISAT 6 21 Dec 21:11:53 21:13:45 12° 87° (E) 21:15:38 437.425
DX 1 21 Dec 21:23:08 21:27:11 38° 262° (W) 21:31:16 434.975-435.025
AISAT 21 Dec 21:30:59 21:35:24 90° 278° (W) 21:39:51 437.250
HUMSAT D 21 Dec 21:31:12 21:35:21 88° 256° (WSW) 21:39:35 437.325/437.525
DANDE 21 Dec 21:31:38 21:38:10 31° 273° (W) 21:45:22 436.750
BEESAT 2 21 Dec 21:32:01 21:36:12 65° 237° (WSW) 21:40:19 435.950
CUBEBUG 1 21 Dec 21:32:25 21:36:25 36° 68° (ENE) 21:40:25 437.445
HO-68 21 Dec 21:33:41 21:38:30 19° 272° (W) 21:43:20 435.675
QB50P1 21 Dec 21:35:05 21:36:39 12° 88° (E) 21:38:13 145.935-145.965
SO-50 21 Dec 21:37:54 21:42:19 45° 315° (NW) 21:46:53 436.795
ANTELSAT 21 Dec 21:42:23 21:46:14 24° 93° (E) 21:50:05 437.575/2403.000
Oscar 11 21 Dec 21:44:22 21:47:36 20° 268° (W) 21:50:51 145.826/435.025
UKube-1 21 Dec 21:53:45 21:56:59 20° 267° (W) 22:00:14 .
POPSAT HIP 1 21 Dec 22:02:28 22:05:53 23° 94° (E) 22:09:16 437.405
YUBILEINY 21 Dec 22:04:29 22:11:06 25° 79° (ENE) 22:17:41 435.215
PCSat 21 Dec 22:08:50 22:14:18 89° 238° (WSW) 22:19:43 145.827
CUBEBUG 2 21 Dec 22:14:46 22:17:17 15° 271° (W) 22:19:51 437.445
TIGRISAT 21 Dec 22:16:32 22:21:07 49° 99° (E) 22:25:42 435.000
CUSAT 1 21 Dec 22:18:39 22:22:12 14° 282° (WNW) 22:25:53 437.405
ZACube-1 21 Dec 22:18:42 22:21:40 19° 269° (W) 22:24:41 437.345
BUGSAT 1 21 Dec 22:21:52 22:25:22 28° 96° (E) 22:28:53 437.445
VELOX 1 21 Dec 22:24:19 22:28:07 28° 265° (W) 22:31:55 145.980
TISAT 1 21 Dec 22:27:02 22:30:51 35° 68° (ENE) 22:34:42 437.305
DUCHIFAT 1 21 Dec 22:29:18 22:33:21 42° 99° (E) 22:37:24 145.980
BEESAT 3 21 Dec 22:30:00 22:32:47 17° 248° (WSW) 22:35:31 437.485
ESTCUBE 1 21 Dec 22:31:04 22:35:31 56° 259° (W) 22:40:00 437.505/2401.250
50 SAT 21 Dec 22:34:47 22:38:00 23° 266° (W) 22:41:16 437.505
SPROUT 21 Dec 22:34:48 22:38:46 39° 69° (ENE) 22:42:46 437.525
RS-15 21 Dec 22:35:38 22:43:39 23° 260° (W) 22:51:56 29.354- 29.394
BEESAT 21 Dec 22:42:38 22:44:17 12° 55° (NE) 22:45:56 436.000
QB50P2 21 Dec 22:43:48 22:48:03 62° 101° (ESE) 22:52:18 145.880/145.840
AIST 2 21 Dec 22:44:12 22:47:54 28° 244° (WSW) 22:51:32 435.215
UNISAT 6 21 Dec 22:46:25 22:51:09 85° 284° (WNW) 22:55:53 437.425
AUBIESAT-1 21 Dec 22:49:48 22:50:22 10° 48° (NE) 22:50:56 437.475
O/OREOS (USA 219) 21 Dec 22:51:53 22:52:07 10° 96° (E) 22:52:20 437.305
POLYITAN 1 21 Dec 22:53:08 22:57:26 77° 103° (ESE) 23:01:44 437.675
NANOSAT C BR1 21 Dec 22:54:05 22:58:22 78° 103° (ESE) 23:02:38 145.865
QB50P1 21 Dec 23:08:47 23:13:03 74° 286° (WNW) 23:17:19 145.935-145.965
CUBEBUG 1 21 Dec 23:09:19 23:12:53 24° 266° (W) 23:16:27 437.445
M-CUBED/EXP-1 PRIME 21 Dec 23:13:29 23:16:40 18° 54° (NE) 23:19:51 437.505
ANTELSAT 21 Dec 23:18:44 23:23:11 43° 291° (WNW) 23:27:39 437.575/2403.000
SO-50 21 Dec 23:21:40 23:24:05 14° 337° (NNW) 23:26:31 436.795
POPSAT HIP 1 21 Dec 23:37:57 23:41:54 38° 291° (WNW) 23:45:50 437.405
SWISSCUBE 21 Dec 23:52:02 23:56:39 49° 70° (ENE) 00:01:16 437.505
ITUPSAT 1 21 Dec 23:53:10 23:57:44 46° 69° (ENE) 00:02:20 437.325
Oscar 19 21 Dec 23:53:18 23:54:13 10° 85° (E) 23:55:08 437.125/150
TIGRISAT 21 Dec 23:53:57 23:57:33 22° 297° (WNW) 00:01:10 435.000
PCSat 21 Dec 23:54:05 23:56:54 14° 257° (WSW) 23:59:42 145.827
BUGSAT 1 21 Dec 23:57:21 00:00:50 28° 293° (WNW) 00:04:20 437.445
YUBILEINY 21 Dec 23:58:11 00:06:56 79° 280° (W) 00:15:42 435.215
TISAT 1 22 Dec 00:03:22 00:06:46 24° 266° (W) 00:10:11 437.305
DUCHIFAT 1 22 Dec 00:05:45 00:08:58 21° 296° (WNW) 00:12:12 145.980
SPROUT 22 Dec 00:11:40 00:15:00 22° 267° (W) 00:18:22 437.525
BEESAT 22 Dec 00:16:32 00:21:19 77° 74° (ENE) 00:26:07 436.000
AUBIESAT-1 22 Dec 00:19:35 00:24:20 55° 66° (ENE) 00:29:06 437.475
QB50P2 22 Dec 00:20:56 00:23:31 16° 299° (WNW) 00:26:06 145.880/145.840
UNISAT 6 22 Dec 00:25:13 00:27:12 13° 303° (WNW) 00:29:12 437.425
O/OREOS (USA 219) 22 Dec 00:26:17 00:30:44 90° 113° (ESE) 00:35:14 437.305
POLYITAN 1 22 Dec 00:30:47 00:32:48 13° 301° (WNW) 00:34:50 437.675
NANOSAT C BR1 22 Dec 00:31:43 00:33:39 13° 301° (WNW) 00:35:36 145.865
M-CUBED/EXP-1 PRIME 22 Dec 00:46:11 00:51:04 81° 251° (WSW) 00:56:01 437.505
STARS 22 Dec 00:50:04 00:53:41 26° 65° (ENE) 00:57:19 437.465
KKS-1 22 Dec 00:56:24 01:00:33 42° 69° (ENE) 01:04:45 437.445
